Regional Weather Roundup
Issued by NWS Goodland, KS

Home | Current Version | Previous Version | Graphics & Text | Print | Product List | Glossary On
Versions: 1 2 3 4 5 6 7 8 9 10 11 12 13 14 15 16 17 18 19 20 21 22 23 24 25 26 27 28 29 30 31 32 33 34 35 36 37 38 39 40 41 42 43 44 45 46 47 48 49 50
000
ASUS43 KGLD 172308
RWRGLD

GOODLAND FORECAST AREA HOURLY WEATHER ROUNDUP
NATIONAL WEATHER SERVICE GOODLAND KS
500 PM MDT WED SEP 17 2014

...OFFICIAL OBSERVATIONS...

CITY           SKY/WX    TMP DP  RH WIND       PRES   REMARKS
GOODLAND KS    PTSUNNY   77  58  51 S14       29.93R
HILL CITY KS   SUNNY     85  63  47 E7        29.86S
IMPERIAL NEB   SUNNY     88  53  30 SE8       29.89F
MCCOOK NEB     SUNNY     85  60  42 E13       29.88S
AKRON CO       MOSUNNY   83  42  23 NE7       29.97S
BURLINGTON CO  MOSUNNY   85  46  25 SW9       29.95F
LIMON CO       MOSUNNY   83  36  18 SW9       30.03F
$$

...UNOFFICIAL OBSERVATIONS...

CITY           SKY/WX    TMP DP  RH WIND       PRES   REMARKS
COLBY KS       SUNNY     88  61  40 E7        29.90F
GOVE KS          N/A     88  32  13 MISG        N/A
NORTON KS      SUNNY     81  57  44 E8        29.88S
SHARON SPRINGS   N/A     88  44  21 CALM        N/A
WAKEENEY KS      N/A     85  58  38 MISG        N/A
TRENTON NEB      N/A     85  32  15 E9          N/A
YUMA CO          N/A     88  46  22 NE6         N/A
$$



USA.gov is the U.S. government's official web portal to all federal, state and local government web resources and services.